Zurück zum Katalog

HULIANWANG DIGUI-148

AktivKommunikationLEO
NORAD 67524·PAYLOAD·🇨🇳 China

Gestartet Jan 19, 2026 von Wenchang Space Launch Site

Loading…

Nächste Überflüge (nächste 24 Stunden)

TLE

AktuellSource: Space-Track

Epoche: Sep 14, 2026, 01:54 UTC

1 67524U 26013C   26257.07926864 -.00000111  00000-0  28638-4 0  9995
2 67524  50.0102  36.9779 0000821  83.4788 276.6178 13.29330542 31872

Verfolge HULIANWANG DIGUI-148 in Echtzeit mit AllMySat

Download on the App Store